Alexandria Esle, LA

7:42 AM CDT on September 25, 2017 (GMT -0500)
Alexandria Esler Regional

Weather History for KESF - September, 2012

Change the Weather History Date:

Friday, September 28, 2012

  Actual Average Record
Temperature  
Mean Temperature 76 °F -  
Max Temperature 90 °F 82 °F 91 °F (1969)
Min Temperature 64 °F 58 °F 43 °F (1967)
Cooling Degree Days 11    
Growing Degree Days 26 (Base 50)    
Moisture  
Dew Point 67 °F    
Average Humidity 81    
Maximum Humidity 94    
Minimum Humidity 53    
Precipitation  
Precipitation 0.01 in - - ()
Sea Level Pressure  
Sea Level Pressure 30.03 in    
Wind  
Wind Speed 1 mph (ESE)    
Max Wind Speed 10 mph    
Max Gust Speed 20 mph    
Visibility 7 miles    
Events Rain    
Averages and records for this station are not official NWS values.
T = Trace of Precipitation, MM = Missing Value Source: NWS Daily Summary

Daily Weather History Graph

Daily Weather History Graph

Search for Another Location

Airport or City:

Trip Planner

Search our weather history database for the weather conditions in past years. The results will help you decide how hot, cold, wet, or windy it might be!

Date:

Astronomy

Sep. 28, 2012 Rise Set
Actual Time 7:01 AM CDT 6:57 PM CDT
Civil Twilight 6:37 AM CDT 7:21 PM CDT
Nautical Twilight 6:09 AM CDT 7:49 PM CDT
Astronomical Twilight 5:40 AM CDT 8:17 PM CDT
Moon 5:59 PM CDT (9/28) 5:35 AM CDT (9/28)
Length of Visible Light 12h 44m
Length of Day
11h 56m
Waxing Gibbous, 98% of the Moon is Illuminated
Sep 28
Waxing Gibbous
Sep 29
Full
Oct 8
Last Quarter
Oct 15
New
Oct 21
First Quarter

Hourly Weather History & Observations

Time (CDT) Temp. Heat Index Dew Point Humidity Pressure Visibility Wind Dir Wind Speed Gust Speed Precip Events Conditions
12:53 AM 68.0 °F - 64.9 °F 90% 30.05 in 5.0 mi Calm Calm - N/A   Clear
1:19 AM 66.2 °F - 64.4 °F 94% 30.05 in 2.5 mi Calm Calm - N/A   Clear
1:27 AM 68.0 °F - 64.4 °F 88% 30.05 in 6.0 mi Calm Calm - N/A   Clear
1:50 AM 66.2 °F - 64.4 °F 94% 30.05 in 1.8 mi Calm Calm - N/A   Clear
1:53 AM 66.9 °F - 64.0 °F 90% 30.05 in 2.0 mi Calm Calm - N/A   Clear
2:04 AM 66.2 °F - 64.4 °F 94% 30.05 in 6.0 mi Calm Calm - N/A   Clear
2:53 AM 66.0 °F - 64.0 °F 93% 30.05 in 5.0 mi Calm Calm - N/A   Clear
3:53 AM 66.0 °F - 63.0 °F 90% 30.04 in 2.5 mi Calm Calm - N/A   Clear
4:12 AM 64.4 °F - 62.6 °F 94% 30.04 in 6.0 mi Calm Calm - N/A   Clear
4:37 AM 64.4 °F - 62.6 °F 94% 30.04 in 2.5 mi Calm Calm - N/A   Clear
4:46 AM 64.4 °F - 62.6 °F 94% 30.04 in 5.0 mi Calm Calm - N/A   Clear
4:53 AM 64.9 °F - 63.0 °F 93% 30.04 in 5.0 mi Calm Calm - N/A   Clear
5:53 AM 64.9 °F - 63.0 °F 93% 30.05 in 5.0 mi Calm Calm - N/A   Clear
6:53 AM 64.9 °F - 63.0 °F 93% 30.05 in 5.0 mi Calm Calm - N/A   Clear
7:53 AM 68.0 °F - 64.9 °F 90% 30.06 in 6.0 mi Calm Calm - N/A   Clear
8:53 AM 73.0 °F - 69.1 °F 87% 30.06 in 10.0 mi Calm Calm - N/A   Overcast
9:53 AM 80.1 °F 83.6 °F 71.1 °F 74% 30.07 in 10.0 mi ESE 4.6 mph - N/A   Partly Cloudy
10:53 AM 82.9 °F 87.5 °F 71.1 °F 67% 30.08 in 10.0 mi East 4.6 mph - N/A   Overcast
11:53 AM 84.0 °F 89.0 °F 71.1 °F 65% 30.06 in 10.0 mi Calm Calm - N/A   Scattered Clouds
12:31 PM 86.0 °F 90.4 °F 69.8 °F 58% 30.05 in 10.0 mi East 6.9 mph - N/A   Mostly Cloudy
12:40 PM 87.8 °F 92.6 °F 69.8 °F 55% 30.05 in 10.0 mi Variable 3.5 mph - N/A   Mostly Cloudy
12:53 PM 87.1 °F 91.3 °F 69.1 °F 55% 30.03 in 10.0 mi Variable 5.8 mph - N/A   Mostly Cloudy
1:53 PM 87.8 °F 92.6 °F 69.8 °F 55% 30.01 in 10.0 mi NE 4.6 mph - N/A   Overcast
2:53 PM 88.0 °F 92.9 °F 70.0 °F 55% 29.97 in 10.0 mi East 6.9 mph - N/A   Clear
3:53 PM 88.0 °F 92.1 °F 69.1 °F 53% 29.96 in 10.0 mi SE 9.2 mph - N/A   Clear
4:53 PM 86.0 °F 90.1 °F 69.1 °F 57% 29.95 in 10.0 mi East 6.9 mph - N/A   Clear
5:53 PM 82.9 °F 88.8 °F 73.0 °F 72% 29.95 in 10.0 mi Calm Calm - N/A   Clear
6:53 PM 77.0 °F - 70.0 °F 79% 29.97 in 10.0 mi SSE 10.4 mph 19.6 mph N/A   Mostly Cloudy
7:53 PM 73.9 °F - 71.1 °F 91% 29.97 in 10.0 mi SE 5.8 mph - 0.01 in Rain Light Rain
8:53 PM 73.9 °F - 71.1 °F 91% 29.98 in 10.0 mi Calm Calm - 0.00 in   Clear
9:53 PM 73.0 °F - 71.1 °F 93% 29.99 in 8.0 mi Calm Calm - N/A   Clear
10:53 PM 72.0 °F - 70.0 °F 93% 29.99 in 6.0 mi Calm Calm - N/A   Clear
11:53 PM 73.0 °F - 70.0 °F 90% 29.99 in 7.0 mi Calm Calm - N/A   Clear